Location: Bullenkuhlen
(53.7689°N, 9.7495°E)
Time: 17:59:47
(UTC+00:00)

Cosmos 2366 rocket - Pass Details

Date: 09 April 2020
Orbit: 956 x 996 km, 82.9° (Epoch: 28 May)

Event Time Altitude Azimuth Distance (km) Brightness Sun altitude
Rises 19:34:00 0° 350° (N) 3,650 7.7 -11.9°
Reaches altitude 10° 19:36:32 10° 353° (N) 2,700 6.9 -12.2°
Maximum altitude 19:42:40 65° 76° (ENE) 1,048 4.0 -13.0°
Enters shadow 19:48:10 13° 157° (SSE) 2,464 5.6 -13.6°
